STARLINK-3677, 51970

Orbit data source: Space-Track

STARLINK-3677, 51970 is a payload satellite owned by SpaceX/Seattle (US) in LEO that was launched on Wed, 09 Mar 2022 UTC via an FALCON 9 launch vehicle from the Air Force Eastern Test Range (AFETR). Payload-class satellites include a variety of spacecraft equipped with specific instruments for various scientific and technological missions. These include communications satellites like Starlink; space stations such as the ISS; scientific satellites like the Hubble; Earth observation satellites from companies like Planet Labs, Umbra, and HawkEye 360; GPS; miniature CubeSats for education and research; and military/defense satellites.

Loading next visibility...
Identifier
51970, 2022-025Q
Orbit
LEO
Country
Flag of USUS
Related business
Manufacturer
SpaceX/Seattle
Mission
Operational Commercial Communications
Bus & Motor
STARLINK, Unknown motor
Mass
297 kg wet, ~275 kg dry
Launch date (UTC)
2022-03-09 (4 years ago)
Launch vehicle
FALCON 9
Launch site
Air Force Eastern Test Range (AFETR)
Object type
Payload
Rocket body
Debris
Shape & HBR
Box + 1 Pan, 10.1 m
Radar Cross Section
13.562 m², Large (>1 m²)

Expand to show TLE details & history
Last TLE update: 17 hours ago

TLE from 17 hours ago
0 STARLINK-3677
1 51970U 22025Q   25346.91617877  .00000073  00000-0  23797-4 0  9991
2 51970  53.0540  60.4437 0001328  88.2607 271.8534 15.06381793207844
Epoch: 2025-12-12T21:59Z
TLE epoch observation values (Epoch: 2025-12-12T21:59:17.845Z)
Latitude
-0.00004°
Longitude
8.76838°
Altitude
548.117 km
Speed
7.589 km/s
True Right ascension
04h 01m 46s
True Declination
0° 00' 00"
Sunlit
Object was in full shadow at epoch
Visualization orbit readout
Latitude
Unknown
Longitude
Unknown
Altitude
Unknown
Speed
Unknown
Apparent Right ascension
Unknown
Apparent Declination
Unknown
Sunlit
N/A
Visualization observer readout
Local Sidereal Time
13:08:24
Azimuth
Unknown
Elevation
Unknown
Doppler factor
Unknown
Orbital elements
Apogee altitude
548.458 km
Perigee altitude
546.618 km
Semi-major axis
6,925.675 km
Eccentricity
0.00013
Inclination
53.054°
RAAN
60.4437°
Arg. of periapsis
88.2607°
True anomaly
271.83819°
Mean anomaly
271.8534°
Eccentric anomaly
271.8458°
Mean motion
3.76574 °/min
Orbital period
95.6 mins
BSTAR
0.000023797
Loading maneuver chart data...
Computing Atmospheric mass density...
Loading historical data...
Loading historical data...
Loading historical data...
Loading historical data...
Loading historical data...
Loading historical data...
Loading historical data...

Documentation

Showing up to 5 results
|